TimeEST,TemperatureF,Dew PointF,Humidity,Sea Level PressureIn,VisibilityMPH,Wind Direction,Wind SpeedMPH,Gust SpeedMPH,PrecipitationIn,Events,Conditions,WindDirDegrees,DateUTC
12:16 AM,27.5,21.2,77,30.24,10.0,NE,5.8,-,N/A,,Overcast,50,2012-11-05 05:16:00
12:36 AM,27.5,21.2,77,30.24,10.0,NNE,4.6,-,N/A,,Overcast,30,2012-11-05 05:36:00
12:55 AM,27.5,20.8,76,30.24,10.0,NE,3.5,-,N/A,,Overcast,40,2012-11-05 05:55:00
1:16 AM,27.3,20.1,74,30.24,10.0,NNE,3.5,-,N/A,,Overcast,30,2012-11-05 06:16:00
1:36 AM,27.5,20.1,74,30.24,10.0,NNE,3.5,-,N/A,,Overcast,30,2012-11-05 06:36:00
1:55 AM,27.5,20.3,74,30.24,10.0,Calm,Calm,-,N/A,,Overcast,0,2012-11-05 06:55:00
2:16 AM,27.9,20.3,73,30.24,10.0,Calm,Calm,-,N/A,,Overcast,0,2012-11-05 07:16:00
2:36 AM,28.0,20.7,74,30.24,10.0,Calm,Calm,-,N/A,,Overcast,0,2012-11-05 07:36:00
2:55 AM,28.2,20.8,74,30.24,10.0,Calm,Calm,-,N/A,,Overcast,0,2012-11-05 07:55:00
3:16 AM,28.4,20.3,72,30.24,10.0,Calm,Calm,-,N/A,,Overcast,0,2012-11-05 08:16:00
3:36 AM,28.4,20.5,72,30.25,10.0,Calm,Calm,-,N/A,,Overcast,0,2012-11-05 08:36:00
3:55 AM,28.4,19.4,69,30.24,10.0,NE,3.5,-,N/A,,Overcast,40,2012-11-05 08:55:00
4:16 AM,28.4,19.4,69,30.24,10.0,NNE,3.5,-,N/A,,Overcast,30,2012-11-05 09:16:00
4:35 AM,28.8,18.9,67,30.25,10.0,Calm,Calm,-,N/A,,Overcast,0,2012-11-05 09:35:00
4:56 AM,28.9,19.6,68,30.25,10.0,NNE,3.5,-,N/A,,Overcast,30,2012-11-05 09:56:00
5:16 AM,29.1,19.9,69,30.25,10.0,NNE,4.6,-,N/A,,Overcast,30,2012-11-05 10:16:00
5:35 AM,29.1,19.9,69,30.25,10.0,ENE,3.5,-,N/A,,Overcast,70,2012-11-05 10:35:00
5:56 AM,29.3,19.9,68,30.25,10.0,Calm,Calm,-,N/A,,Overcast,0,2012-11-05 10:56:00
6:16 AM,29.3,19.4,67,30.25,10.0,ENE,4.6,-,N/A,,Overcast,60,2012-11-05 11:16:00
6:36 AM,29.3,19.9,68,30.25,10.0,Calm,Calm,-,N/A,,Overcast,0,2012-11-05 11:36:00
6:56 AM,29.3,19.6,67,30.26,10.0,Calm,Calm,-,N/A,,Overcast,0,2012-11-05 11:56:00
7:15 AM,29.3,19.9,68,30.26,10.0,ENE,4.6,-,N/A,,Overcast,60,2012-11-05 12:15:00
7:36 AM,29.3,19.6,67,30.27,10.0,Calm,Calm,-,N/A,,Overcast,0,2012-11-05 12:36:00
7:56 AM,29.3,19.9,68,30.26,10.0,Calm,Calm,-,N/A,,Overcast,0,2012-11-05 12:56:00
8:15 AM,29.3,20.3,69,30.27,10.0,Calm,Calm,-,N/A,,Overcast,0,2012-11-05 13:15:00
8:36 AM,30.0,19.6,65,30.27,10.0,Calm,Calm,-,N/A,,Overcast,0,2012-11-05 13:36:00
8:56 AM,30.2,19.4,64,30.27,10.0,Calm,Calm,-,N/A,,Overcast,0,2012-11-05 13:56:00
9:15 AM,30.7,20.1,65,30.27,10.0,Calm,Calm,-,N/A,,Overcast,0,2012-11-05 14:15:00
9:36 AM,30.9,19.8,63,30.27,10.0,NNE,4.6,-,N/A,,Overcast,30,2012-11-05 14:36:00
9:56 AM,31.1,20.1,64,30.27,10.0,NE,4.6,-,N/A,,Overcast,50,2012-11-05 14:56:00
10:16 AM,31.5,20.1,63,30.27,10.0,ENE,3.5,-,N/A,,Overcast,70,2012-11-05 15:16:00
10:36 AM,31.3,21.0,66,30.27,10.0,Calm,Calm,-,N/A,,Overcast,0,2012-11-05 15:36:00
10:56 AM,31.6,21.4,66,30.28,10.0,ENE,5.8,-,N/A,,Overcast,60,2012-11-05 15:56:00
11:16 AM,31.6,20.3,63,30.28,10.0,East,3.5,-,N/A,,Overcast,80,2012-11-05 16:16:00
11:36 AM,32.0,20.1,62,30.28,10.0,NE,4.6,-,N/A,,Overcast,50,2012-11-05 16:36:00
11:56 AM,32.0,20.8,63,30.27,10.0,Calm,Calm,-,N/A,,Overcast,0,2012-11-05 16:56:00
12:16 PM,32.0,21.0,64,30.26,10.0,Calm,Calm,-,N/A,,Overcast,0,2012-11-05 17:16:00
12:35 PM,32.0,20.3,62,30.25,10.0,NE,3.5,-,N/A,,Overcast,50,2012-11-05 17:35:00
12:56 PM,32.2,19.9,61,30.25,10.0,ENE,4.6,-,N/A,,Overcast,70,2012-11-05 17:56:00
1:16 PM,32.2,20.5,62,30.24,10.0,Calm,Calm,-,N/A,,Overcast,0,2012-11-05 18:16:00
1:35 PM,32.9,21.0,62,30.24,10.0,Calm,Calm,-,N/A,,Overcast,0,2012-11-05 18:35:00
1:56 PM,32.9,20.7,61,30.23,10.0,Calm,Calm,-,N/A,,Overcast,0,2012-11-05 18:56:00
2:16 PM,32.2,20.7,63,30.23,10.0,Calm,Calm,-,N/A,,Overcast,0,2012-11-05 19:16:00
2:35 PM,32.9,20.7,61,30.23,10.0,Calm,Calm,-,N/A,,Overcast,0,2012-11-05 19:35:00
2:56 PM,32.9,20.5,60,30.22,10.0,North,3.5,-,N/A,,Overcast,360,2012-11-05 19:56:00
3:16 PM,33.3,20.7,60,30.22,10.0,Calm,Calm,-,N/A,,Overcast,0,2012-11-05 20:16:00
3:36 PM,32.7,20.3,60,30.22,10.0,Calm,Calm,-,N/A,,Overcast,0,2012-11-05 20:36:00
3:56 PM,32.4,19.9,60,30.22,10.0,Calm,Calm,-,N/A,,Overcast,0,2012-11-05 20:56:00
4:15 PM,32.2,20.5,62,30.22,10.0,North,3.5,-,N/A,,Overcast,10,2012-11-05 21:15:00
4:36 PM,32.0,20.1,62,30.21,10.0,Calm,Calm,-,N/A,,Overcast,0,2012-11-05 21:36:00
4:56 PM,32.0,20.5,63,30.21,10.0,North,3.5,-,N/A,,Overcast,360,2012-11-05 21:56:00
5:15 PM,31.8,19.9,62,30.21,10.0,Calm,Calm,-,N/A,,Overcast,0,2012-11-05 22:15:00
5:36 PM,31.5,19.4,61,30.20,10.0,Calm,Calm,-,N/A,,Mostly Cloudy,0,2012-11-05 22:36:00
5:56 PM,31.1,19.4,62,30.21,10.0,SSE,3.5,-,N/A,,Scattered Clouds,160,2012-11-05 22:56:00
6:15 PM,29.8,19.4,65,30.21,10.0,Calm,Calm,-,N/A,,Mostly Cloudy,0,2012-11-05 23:15:00
6:36 PM,29.8,19.4,65,30.21,10.0,Calm,Calm,-,N/A,,Overcast,0,2012-11-05 23:36:00
6:56 PM,27.9,19.9,72,30.21,10.0,Calm,Calm,-,N/A,,Mostly Cloudy,0,2012-11-05 23:56:00
7:15 PM,28.4,19.4,69,30.20,10.0,Calm,Calm,-,N/A,,Scattered Clouds,0,2012-11-06 00:15:00
7:36 PM,27.0,19.8,74,30.20,10.0,Calm,Calm,-,N/A,,Mostly Cloudy,0,2012-11-06 00:36:00
7:56 PM,27.9,21.6,77,30.20,10.0,Calm,Calm,-,N/A,,Overcast,0,2012-11-06 00:56:00
8:16 PM,30.2,20.5,67,30.20,10.0,Calm,Calm,-,N/A,,Overcast,0,2012-11-06 01:16:00
8:36 PM,30.7,19.8,64,30.19,10.0,Calm,Calm,-,N/A,,Overcast,0,2012-11-06 01:36:00
8:55 PM,31.1,20.1,64,30.19,10.0,Calm,Calm,-,N/A,,Overcast,0,2012-11-06 01:55:00
9:16 PM,31.1,20.7,65,30.19,10.0,Calm,Calm,-,N/A,,Overcast,0,2012-11-06 02:16:00
9:36 PM,31.1,20.8,66,30.19,10.0,Calm,Calm,-,N/A,,Overcast,0,2012-11-06 02:36:00
9:55 PM,31.1,20.3,64,30.18,10.0,Calm,Calm,-,N/A,,Overcast,0,2012-11-06 02:55:00
10:16 PM,31.1,20.3,64,30.17,10.0,Calm,Calm,-,N/A,,Overcast,0,2012-11-06 03:16:00
10:36 PM,30.9,20.8,66,30.17,10.0,Calm,Calm,-,N/A,,Overcast,0,2012-11-06 03:36:00
10:56 PM,31.1,20.8,66,30.16,10.0,Calm,Calm,-,N/A,,Overcast,0,2012-11-06 03:56:00
11:16 PM,31.1,21.0,66,30.16,10.0,Calm,Calm,-,N/A,,Overcast,0,2012-11-06 04:16:00
11:36 PM,31.3,21.2,66,30.15,10.0,Calm,Calm,-,N/A,,Overcast,0,2012-11-06 04:36:00
11:56 PM,31.3,21.2,66,30.15,10.0,Calm,Calm,-,N/A,,Overcast,0,2012-11-06 04:56:00